User: anonymous   Login
Location: Unspecified
(0.0000°N, 0.0000°E)
Time: 03:01:15
(UTC+00:00)
Language:

USA 119 - Orbit

View from above orbital plane
View from above orbital plane
View from above satellite
View from above satellite

Ground track
Ground track

The orbit data is extracted from the following two-line orbital elements,

1 23893U 96029A   18093.82853301 0.00000000  00000-0  00000-0 0    05
2 23893  63.3280 133.4379 3386911 264.2024  56.9394  5.52853605    05
Epoch (UTC): 03 April 2018 19:53:05
Eccentricity: 0.3386911
inclination: 63.3280°
perigee height: 2556 km
apogee height: 11708 km
right ascension of ascending node: 133.4379°
argument of perigee: 264.2024°
revolutions per day: 5.52853605
mean anomaly at epoch: 56.9394°
orbit number at epoch: 0

The dashed part of the orbit path shows where the satellite is in the earth's shadow,  

DLR